Starlink 32267

operational
NORAD ID: 60363 Int'l Des: 2024-138 Owner: SPXS Country: US Constellation: starlink
LEOCIRCULAR

About Starlink 32267

Description loading...

Live Position

Loading 3D Globe...

Upcoming Passes

Altitude History

Altitude vs Time

uPlot chart will show altitude changes over time

Two-Line Element Set

1 60363U 24138J 25260.66369450 .00000435 00000-0 26794-4 0 9994
2 60363 53.1616 33.4995 0001093 99.7015 260.4109 15.30201096 64132
Epoch: Sep 17, 2025 • Age: 23 hours

Current Status

Altitude 480.5 km
Velocity 7.63 km/s
Sub-Earth Point -18.61°S, 4.45°E
Launch Date Aug 4, 2024
Age 1.1 years
Type internet

Technical Details

Classification Payload
Mass 730.00 kg
Dry Mass 700.00 kg
Total Mass 730.00 kg
Length 0.30 m
Diameter 4.10 m
Span 29.00 m
Shape Box + pan
Manufacturer SPXS
Bus Type Starlink V2M
Phase Status In Orbit
Owner/State SPXS/US

Large Constellations

Loading constellations...